GEFSCGP_con_prob3kmehi_264.txt.gz
EHI
0 0 0 0 0 0 0 0 0 0 0 0 0 2 3 4 4 7 11 13 14 17 18 19 17 15 17 24 29 30 28 27 28 29 29 28 24 21 22 24 25 23 19 17
0 0 0 0 0 0 0 0 0 0 0 0 0 2 4 4 4 8 12 15 18 19 22 24 23 20 21 28 32 31 29 28 28 28 28 27 24 21 21 24 26 26 21 19
0 0 0 0 0 0 0 0 0 0 0 0 0 2 4 5 7 10 15 18 20 23 28 30 28 26 29 34 37 36 35 33 30 28 26 25 24 23 23 27 31 30 24 19
0 0 0 0 0 0 0 0 0 0 0 0 0 1 3 6 10 14 18 20 21 26 31 32 32 33 36 37 39 42 45 43 37 32 27 25 25 25 28 33 37 35 29 23
0 0 0 0 0 0 0 0 0 0 0 0 0 0 3 8 12 16 19 20 20 25 30 33 36 39 39 35 38 47 54 53 46 39 32 28 26 26 29 36 40 38 34 31
0 0 0 0 0 0 0 0 0 0 0 0 0 1 3 8 11 15 19 20 19 22 28 34 42 46 41 35 38 51 63 63 54 45 38 34 31 29 30 34 37 36 35 34
0 0 0 0 0 0 0 0 0 0 0 0 1 2 4 7 9 12 17 20 19 22 28 37 48 53 48 42 45 58 70 70 60 48 41 38 36 34 33 34 33 31 30 31
0 0 0 0 0 0 0 0 0 0 0 0 1 3 5 6 7 9 14 18 20 22 28 37 48 54 53 51 55 64 72 72 64 53 46 42 39 35 34 35 33 29 26 24
0 0 0 0 0 0 0 0 0 0 0 0 1 4 6 6 6 8 11 16 19 22 27 33 41 48 50 52 57 65 72 73 65 57 52 48 43 37 34 34 34 31 25 21
0 0 0 0 0 0 0 0 0 0 0 0 2 5 6 6 7 8 9 14 19 22 25 28 33 40 43 45 51 60 69 71 66 59 54 51 48 43 38 36 36 34 28 24
0 0 0 0 0 0 0 0 0 0 0 0 1 4 5 7 8 7 8 13 21 25 26 27 30 35 39 42 46 55 63 66 64 58 52 49 49 48 45 41 38 36 34 31
0 0 0 0 0 0 0 0 0 0 0 0 1 3 5 6 6 6 6 11 20 26 29 31 34 38 43 46 49 54 61 64 61 57 52 48 49 51 50 46 42 40 38 38
0 0 0 0 0 0 0 0 0 0 0 0 1 3 6 5 4 4 5 8 15 23 30 36 43 48 51 55 57 59 61 62 60 57 54 52 51 52 51 48 45 44 42 41
0 0 0 0 0 0 0 0 0 0 0 0 1 4 5 5 4 5 6 7 12 21 31 43 54 58 60 64 66 66 63 60 61 62 60 60 59 56 54 52 49 47 44 42
0 0 0 0 0 0 0 0 0 0 0 0 1 3 4 3 4 8 10 11 16 23 34 49 60 64 65 67 68 66 63 62 64 66 65 65 64 60 58 56 53 50 47 44
0 0 0 0 0 0 0 0 0 0 0 0 1 3 3 2 4 11 15 16 20 26 34 47 60 68 68 66 64 63 64 66 67 65 63 63 63 61 59 56 54 54 51 48
1 1 0 0 0 0 0 0 0 0 0 1 3 4 4 3 6 13 19 22 23 25 30 41 54 65 67 64 62 62 63 66 66 62 59 59 61 60 58 54 55 56 54 51
1 2 1 0 0 0 0 0 1 2 1 2 4 5 4 5 10 17 23 27 27 28 31 38 47 57 62 62 61 62 62 64 66 61 57 59 61 60 57 55 56 56 53 51
1 2 1 0 0 0 0 0 1 3 4 3 4 5 5 8 13 21 27 31 33 35 37 41 43 48 54 57 60 62 62 64 67 65 60 61 62 60 58 58 57 54 50 49
1 2 1 1 0 0 0 0 0 3 5 6 7 9 11 12 16 22 26 31 37 39 39 41 41 45 52 56 60 61 60 62 66 66 65 64 62 60 59 58 57 53 49 46
1 1 1 0 0 0 0 0 2 7 11 12 12 15 16 16 17 21 26 32 40 40 37 39 44 50 57 59 59 59 60 61 63 63 63 64 60 56 55 57 56 52 47 45
1 1 1 1 1 2 3 4 9 16 20 17 15 15 15 15 17 21 29 38 44 43 40 42 51 58 61 59 58 59 61 63 63 61 61 61 58 52 50 53 53 49 45 43
2 3 3 3 4 6 8 10 14 19 20 17 13 12 11 12 16 23 34 44 48 47 45 47 54 61 61 59 58 59 61 63 63 62 61 62 60 52 47 46 46 44 42 40
3 4 5 6 6 7 9 11 12 14 13 12 11 12 12 13 17 25 37 44 47 47 47 49 54 59 59 58 57 56 57 59 60 60 59 59 57 51 44 41 41 41 38 36
2 4 6 8 8 8 8 9 9 10 10 9 10 12 12 13 16 26 36 41 42 43 45 49 55 58 58 58 56 53 52 55 57 56 55 52 47 43 40 36 34 32 29 27
1 2 5 9 11 9 8 8 7 9 10 10 9 10 11 11 14 24 35 38 39 42 45 50 55 57 58 58 56 51 51 53 54 54 53 47 40 37 36 33 28 23 19 17

GEFSCGP_con_prob3kmehi_270.txt.gz
EHI
0 0 0 0 0 0 0 0 0 1 2 3 2 1 0 0 0 1 1 2 2 2 3 5 7 10 10 10 11 11 9 8 7 5 2 1 2 2 1 0 0 1 1 1
0 0 0 0 0 0 0 0 0 1 2 3 2 1 0 0 1 2 2 2 2 4 6 8 11 14 15 14 12 10 9 8 6 4 2 1 1 1 0 1 1 3 3 3
0 0 0 0 0 0 0 0 0 1 2 2 2 1 0 0 1 2 3 3 4 7 10 13 16 18 19 18 13 10 9 8 6 5 4 3 1 1 1 1 3 4 5 5
0 0 0 0 0 0 0 0 0 0 1 1 1 0 0 1 2 3 4 4 5 8 13 17 20 21 23 22 16 12 10 9 9 8 8 6 4 2 1 2 4 5 6 6
0 0 0 0 0 0 0 0 0 0 0 0 0 0 0 1 4 6 5 4 5 8 13 19 21 22 25 25 21 16 14 12 13 14 13 10 6 2 1 3 5 5 5 6
0 0 0 0 0 0 0 0 0 0 0 0 0 0 0 2 4 7 7 6 6 8 13 18 21 22 24 26 24 21 19 17 17 18 16 14 10 5 3 4 6 6 5 6
0 0 0 0 0 0 0 0 0 0 0 0 0 0 1 2 3 5 8 8 8 9 12 18 22 23 24 26 27 25 23 21 21 20 19 17 14 10 7 6 5 6 7 6
0 0 0 0 0 0 0 0 0 0 0 0 0 0 1 2 3 5 8 11 11 10 12 17 21 23 24 25 27 29 27 25 25 25 24 22 20 15 11 8 5 6 8 9
0 0 0 0 0 0 0 0 0 0 0 0 0 0 0 1 3 5 8 12 13 11 13 16 20 23 25 25 27 31 31 28 27 30 31 28 24 20 14 11 8 7 9 10
0 0 0 0 0 0 0 0 0 0 0 0 0 0 0 1 2 4 8 13 15 15 14 16 19 23 25 25 27 32 32 30 30 32 33 32 27 21 16 13 13 12 11 11
0 0 0 0 0 0 0 0 0 0 0 0 0 0 0 1 2 5 8 13 16 17 15 15 18 21 23 23 26 32 33 32 33 33 34 33 29 23 18 17 17 16 15 15
0 0 0 0 0 0 0 0 0 0 0 0 0 0 0 0 2 5 8 10 13 15 14 13 16 20 21 20 24 32 36 36 35 35 35 34 30 26 23 21 21 21 20 19
0 0 0 0 0 0 0 0 0 0 0 0 0 0 0 0 1 4 7 9 11 14 13 12 14 19 21 20 22 31 38 39 37 36 36 34 30 28 28 26 25 24 23 21
0 0 0 0 0 0 0 0 0 0 0 0 0 0 0 1 1 3 7 11 14 17 16 14 15 19 22 21 22 30 39 42 41 40 37 34 31 30 30 29 27 26 23 22
0 0 0 0 0 0 0 0 0 0 0 0 0 0 1 2 3 4 7 12 17 19 20 21 22 26 29 27 25 29 37 43 45 44 41 37 34 30 30 29 27 25 23 23
0 0 0 0 0 0 0 0 0 1 1 1 0 1 3 5 7 8 9 13 17 22 26 30 32 36 37 34 29 28 33 39 43 43 41 38 34 30 27 25 23 22 21 21
0 0 0 0 0 0 0 0 0 1 2 1 1 3 6 10 12 12 12 14 19 26 32 35 37 39 39 34 29 29 31 33 37 39 38 36 34 30 25 21 18 18 18 18
0 0 0 0 0 0 0 0 0 1 2 3 4 7 12 16 17 17 17 17 19 26 32 33 34 35 33 31 30 31 30 28 30 34 35 33 33 31 27 22 19 18 17 17
0 0 0 0 0 0 0 0 0 1 2 3 7 12 15 18 20 21 20 18 18 22 25 26 29 30 29 30 33 33 30 27 27 31 32 32 32 32 30 27 24 21 18 17
0 0 0 0 0 0 0 0 0 1 2 3 7 11 14 16 19 20 18 15 16 18 20 22 24 26 27 29 33 35 32 28 26 28 30 30 29 30 31 29 25 21 18 17
0 0 0 0 0 0 0 0 0 1 1 3 6 9 11 13 15 17 15 14 15 18 19 21 23 24 25 27 32 34 32 28 26 27 28 27 25 25 27 26 24 21 19 19
0 0 0 0 0 0 0 0 0 1 2 5 8 10 10 11 13 13 12 12 14 17 18 19 21 22 23 26 30 32 31 29 29 28 27 25 23 23 23 23 22 20 19 19
1 0 0 0 1 1 1 1 1 2 4 6 10 11 10 10 11 9 7 7 11 15 15 17 18 20 22 25 27 30 32 33 33 31 28 25 22 21 20 19 19 18 18 18
1 0 0 1 2 3 3 2 3 4 5 7 9 10 10 10 9 7 5 5 9 13 15 17 19 20 22 24 25 29 35 38 35 31 27 23 20 19 18 16 15 15 17 18
2 1 0 2 3 3 4 5 6 7 7 8 8 9 9 11 11 11 9 10 13 15 18 22 24 24 24 25 26 29 35 37 34 28 23 18 17 16 16 14 12 12 14 16
3 1 0 1 3 3 4 6 7 9 10 10 10 9 9 12 15 15 14 15 17 19 22 26 28 26 26 27 27 29 33 35 32 26 20 15 14 15 15 13 11 9 10 12

GEFSCGP_con_prob3kmehi_276.txt.gz
EHI
0 0 0 0 0 0 0 0 0 0 1 0 0 0 0 0 1 0 0 0 0 0 0 0 1 2 3 3 1 0 0 1 2 2 1 0 0 0 0 0 0 0 0 0
0 0 0 0 0 0 0 0 0 0 1 0 0 0 0 0 1 1 0 0 0 0 0 1 2 4 4 4 2 1 0 0 1 2 1 0 0 0 0 0 0 0 0 0
0 0 0 0 0 0 0 0 0 0 0 0 0 0 0 0 1 1 1 1 0 0 1 3 5 5 4 3 2 1 1 0 0 1 1 1 1 1 1 1 0 0 1 1
0 0 0 0 0 0 0 0 0 0 0 0 0 0 0 0 0 1 2 2 1 1 1 4 6 5 3 2 2 1 1 1 0 1 1 2 2 3 2 1 1 1 1 0
0 0 0 0 0 0 0 0 0 0 0 0 0 0 0 0 0 0 1 2 3 2 2 3 4 3 2 2 2 1 0 0 0 1 2 3 2 2 2 1 1 1 0 0
0 0 0 0 0 0 0 0 0 0 0 0 0 0 0 0 0 0 1 2 3 4 4 3 1 2 3 4 5 3 1 0 0 1 2 2 1 1 1 1 1 1 0 0
0 0 0 0 0 0 0 0 0 0 0 0 0 0 0 0 0 0 1 2 4 5 4 2 1 2 4 5 7 7 4 1 0 0 1 2 1 0 0 1 1 1 0 0
0 0 0 0 0 0 0 0 0 0 0 0 0 0 0 0 0 0 1 2 3 3 2 1 1 2 4 6 8 10 8 3 1 1 1 1 0 1 1 1 2 1 0 0
0 0 0 0 0 0 0 0 0 0 0 0 0 0 0 0 0 0 0 1 1 1 1 0 0 2 5 8 9 11 10 6 3 2 2 1 1 2 3 3 3 2 1 1
0 0 0 0 0 0 0 0 0 0 0 0 0 0 0 0 0 0 0 0 0 0 0 0 1 2 6 8 9 11 10 6 4 4 3 3 2 3 5 4 4 4 4 4
0 0 0 0 0 0 0 0 0 0 0 0 0 0 0 0 0 0 0 0 0 0 0 1 2 3 5 8 8 8 8 6 5 6 6 5 5 5 5 5 5 6 6 5
0 0 0 0 0 0 0 0 0 0 0 0 0 0 0 0 0 0 0 1 1 0 0 1 2 4 6 7 6 4 4 6 6 7 7 7 7 7 6 6 6 6 5 4
0 0 0 0 0 0 0 0 0 0 0 0 0 0 0 0 0 0 1 2 2 1 1 1 1 3 6 6 5 3 3 4 6 8 9 9 9 10 8 6 7 6 4 4
0 0 0 0 0 0 0 0 0 0 0 0 0 0 0 0 0 0 1 2 3 3 2 2 1 3 5 5 4 3 3 4 7 10 12 12 12 12 9 7 6 5 4 5
0 0 0 0 0 0 0 0 0 0 0 0 0 0 0 0 0 0 1 3 4 4 3 3 3 3 4 4 3 3 4 6 9 12 13 12 12 12 11 8 5 4 3 4
0 0 0 0 0 0 0 0 0 0 0 0 0 0 0 0 0 0 3 6 8 7 5 4 4 5 4 3 3 3 5 8 11 12 12 11 11 12 11 7 5 4 3 3
0 0 0 0 0 0 0 0 0 0 0 0 0 0 0 0 1 2 6 10 12 10 7 5 5 5 4 4 3 4 6 10 12 11 10 11 12 12 10 6 5 5 4 4
0 0 0 0 0 0 0 0 0 0 0 0 0 1 2 2 3 5 7 8 9 8 6 6 7 7 6 5 5 6 10 12 13 12 12 13 15 14 11 8 7 8 8 8
0 0 0 0 0 0 0 0 0 0 0 0 2 4 5 4 5 6 6 5 5 5 5 6 8 8 8 7 7 10 12 14 14 14 14 14 14 14 13 10 10 11 11 10
0 0 0 0 0 0 0 0 0 0 0 2 4 6 5 4 4 4 5 4 4 5 6 7 8 9 8 7 9 12 13 14 16 16 16 15 14 15 14 13 12 12 11 9
0 0 0 0 0 0 0 0 0 0 1 3 5 5 4 2 2 3 4 4 4 5 7 9 10 9 8 8 10 13 14 14 15 16 17 17 17 16 15 13 13 12 10 7
0 0 0 0 0 0 0 0 0 0 1 3 4 3 3 2 2 3 4 4 5 7 9 11 11 10 10 10 11 13 14 14 14 15 17 19 18 16 14 13 13 13 10 8
0 0 0 0 0 0 0 0 1 1 2 3 3 3 4 4 3 3 4 5 7 8 10 10 10 11 12 11 11 12 14 13 13 15 17 18 18 15 14 13 13 12 10 9
0 0 0 0 0 0 1 1 3 4 5 4 3 4 5 4 3 4 5 6 7 8 9 9 10 11 12 10 9 11 13 14 14 16 17 17 16 14 13 12 12 10 9 9
0 0 0 0 0 1 2 4 6 8 8 5 4 4 4 3 3 3 4 6 7 8 7 8 10 12 11 9 8 11 16 18 18 17 16 15 13 12 11 10 9 7 6 6
0 0 0 0 0 1 3 5 7 8 9 6 4 3 3 3 3 3 4 5 8 8 7 7 10 12 11 8 9 13 18 20 21 19 16 13 11 10 10 9 6 4 3 4

GEFSCGP_con_prob3kmehi_282.txt.gz
EHI
0 0 0 0 0 0 0 0 0 0 0 0 0 0 1 2 4 5 7 9 8 5 4 3 3 5 8 8 9 10 8 5 4 4 4 3 3 3 2 3 4 6 6 5
0 0 0 0 0 0 0 0 0 0 0 0 0 0 0 1 3 5 6 8 7 5 4 4 4 7 9 9 10 12 11 8 5 5 3 3 2 2 1 1 3 4 6 6
0 0 0 0 0 0 0 0 0 0 0 0 0 0 0 1 2 3 4 5 4 4 5 6 7 8 10 11 12 13 13 12 9 6 4 3 2 1 0 0 1 2 5 7
0 0 0 0 0 0 0 0 0 1 0 0 0 0 1 2 2 2 2 3 4 4 6 8 8 10 11 12 13 13 14 15 13 9 6 5 3 1 0 0 0 1 4 6
0 0 0 0 0 0 0 0 0 0 0 0 0 0 1 2 2 1 1 3 4 5 6 8 10 11 12 13 13 14 15 17 16 12 9 7 5 3 2 1 0 1 3 6
0 0 0 0 0 0 0 0 0 0 0 0 0 0 0 2 2 1 1 2 3 5 6 8 11 14 15 14 14 14 16 18 17 14 11 10 8 7 7 5 2 1 3 6
0 0 0 0 0 0 0 0 0 0 0 0 0 0 0 1 2 2 2 1 2 4 6 8 12 16 18 18 17 16 17 19 19 18 16 15 12 10 9 8 5 4 4 4
0 0 0 0 0 0 0 0 0 0 0 0 0 0 0 1 1 1 2 1 1 3 6 8 10 14 17 22 23 22 21 22 21 21 21 20 17 12 10 8 7 5 3 3
0 0 0 0 0 0 0 0 0 0 0 0 0 0 0 0 0 1 1 1 1 2 5 7 7 9 12 19 25 26 25 26 25 23 21 21 19 15 11 10 9 7 6 6
0 0 0 0 0 0 0 0 0 0 0 0 0 0 0 1 1 2 2 2 1 2 3 4 5 6 9 14 20 22 23 25 25 23 20 19 19 18 14 12 12 11 11 11
0 0 0 0 0 0 0 0 0 0 0 0 0 0 1 2 3 3 3 2 2 2 3 4 6 7 9 12 15 18 21 21 20 20 19 18 18 18 16 13 14 14 13 14
0 0 0 0 0 0 0 0 0 0 0 0 0 0 2 3 3 3 3 1 1 2 3 5 8 9 10 12 13 16 19 18 16 16 18 18 18 19 18 17 16 15 14 15
0 0 0 0 0 0 0 0 0 0 0 0 0 0 1 2 3 3 3 2 1 2 4 6 10 12 14 15 17 16 15 15 14 15 18 20 21 22 24 21 18 17 17 17
0 0 0 0 0 0 0 0 0 0 0 0 0 0 0 1 2 3 3 2 3 3 5 8 11 15 18 21 21 16 12 12 15 19 22 23 23 24 26 23 19 19 21 20
0 0 0 0 0 0 0 0 0 0 0 0 0 0 1 1 1 2 3 4 5 6 9 11 13 16 20 24 23 18 15 16 19 23 25 24 23 22 23 23 22 23 22 21
0 0 0 0 0 0 0 0 0 0 0 0 0 1 2 2 2 2 4 5 7 8 10 12 14 15 18 22 24 24 24 24 25 26 25 24 22 23 24 24 25 27 25 23
0 0 0 0 0 0 0 0 0 0 0 0 1 2 2 3 4 6 7 7 7 7 9 12 14 14 16 19 24 29 31 32 30 27 24 22 21 23 25 26 28 31 29 26
0 0 0 0 0 0 0 0 0 0 0 1 2 2 3 4 7 10 10 9 8 9 12 15 15 15 17 20 24 29 34 35 33 29 25 22 21 22 27 30 33 34 32 30
0 0 0 0 0 0 0 0 0 0 1 2 3 4 6 7 7 9 11 11 13 15 18 19 18 17 18 23 27 30 33 35 34 31 29 27 25 24 28 32 34 35 33 31
0 0 0 0 0 0 0 0 0 1 2 3 5 7 9 9 8 10 11 14 18 21 22 22 19 17 19 24 28 31 33 33 31 30 31 31 29 27 27 29 31 32 31 30
0 0 0 0 0 0 0 0 0 1 3 6 9 11 12 13 13 14 15 17 21 23 22 22 20 19 20 22 26 29 31 30 27 26 28 30 30 27 25 27 29 31 29 27
0 0 0 0 0 0 0 0 0 2 6 11 13 14 16 18 18 18 18 18 19 20 20 21 23 23 22 22 23 27 29 28 25 24 26 27 27 24 24 27 30 31 28 24
0 0 0 0 0 0 0 0 0 3 8 12 15 16 17 18 19 18 18 18 17 17 18 20 23 25 25 24 24 25 27 27 26 25 25 26 24 22 23 27 30 29 26 22
1 0 0 0 0 1 1 1 2 4 8 11 14 16 16 16 17 16 16 17 17 17 16 16 17 22 24 25 24 24 26 28 29 27 26 26 24 22 24 27 28 27 23 20
2 1 1 0 0 2 4 6 6 7 9 12 15 16 16 14 13 13 14 17 19 17 14 12 12 17 23 24 23 23 26 28 28 27 27 27 25 23 26 27 25 21 17 15
3 3 3 1 0 2 6 9 10 9 11 14 17 18 15 12 11 11 13 17 19 17 13 10 10 16 22 24 22 23 25 27 26 25 25 25 25 25 27 26 20 14 11 10

GEFSCGP_con_prob3kmehi_288.txt.gz
EHI
0 0 0 0 0 0 0 0 0 0 1 2 2 1 2 4 5 7 10 12 11 9 11 14 16 18 22 28 31 27 21 19 16 13 12 10 8 8 9 11 13 13 11 11
0 0 0 0 0 0 0 0 0 0 1 3 3 2 2 4 4 6 11 15 15 14 16 19 20 21 24 30 33 30 26 23 18 14 13 10 8 8 8 10 14 15 14 14
0 0 0 0 0 0 0 0 0 0 2 4 4 3 4 5 4 6 11 16 18 19 22 25 24 23 25 31 34 32 30 27 21 17 14 10 7 7 6 8 14 18 19 18
0 0 0 0 0 0 0 0 0 0 1 2 3 3 6 6 4 6 10 14 18 21 24 26 26 26 27 30 33 35 36 33 27 20 15 10 9 8 6 7 12 19 23 24
0 0 0 0 0 0 0 0 0 0 0 1 1 2 5 7 6 7 11 13 15 19 23 26 28 29 29 29 32 39 44 43 36 26 17 14 13 11 10 11 14 19 25 28
0 0 0 0 0 0 0 0 0 0 0 0 0 1 4 7 6 7 12 12 13 17 21 26 31 34 33 30 33 41 50 52 45 34 24 20 18 15 16 18 20 23 27 27
0 0 0 0 0 0 0 0 0 0 0 0 0 1 3 5 5 7 12 13 13 15 19 25 34 39 38 37 39 45 52 54 51 42 32 26 22 20 21 23 23 24 25 25
0 0 0 0 0 0 0 0 0 0 0 0 0 2 3 3 4 7 11 13 13 15 18 24 34 41 42 43 45 48 52 56 55 49 41 35 29 24 24 24 22 20 20 22
0 0 0 0 0 0 0 0 0 0 0 0 1 3 3 2 3 6 10 12 13 14 16 22 30 38 41 44 45 47 52 57 57 54 48 42 36 30 24 24 23 20 18 18
0 0 0 0 0 0 0 0 0 0 0 0 0 2 3 2 3 6 9 12 13 13 15 18 25 33 38 42 45 47 51 55 56 56 52 45 39 34 29 27 28 27 24 23
0 0 0 0 0 0 0 0 0 0 0 0 0 1 2 2 2 5 9 12 12 12 14 17 23 30 36 41 45 49 51 53 55 56 53 46 40 39 37 36 36 36 35 35
0 0 0 0 0 0 0 0 0 0 0 0 0 1 2 2 2 4 8 12 12 12 14 19 25 32 36 40 44 47 48 49 52 54 52 46 43 42 42 40 40 41 42 41
0 0 0 0 0 0 0 0 0 0 0 0 0 0 1 2 3 4 8 11 13 15 18 24 32 38 40 41 44 45 44 45 48 50 51 48 45 43 43 41 42 44 43 39
0 0 0 0 0 0 0 0 0 0 0 0 1 1 2 4 4 6 9 12 15 18 22 29 38 43 45 45 45 44 44 43 45 48 49 47 46 46 45 44 44 45 43 39
0 0 0 0 0 0 0 0 0 0 0 1 2 3 3 5 7 9 12 15 18 20 24 30 39 45 46 46 45 44 44 44 45 47 46 44 45 47 47 44 43 45 45 42
0 0 0 0 0 0 0 0 0 1 1 1 2 3 4 6 10 13 17 21 23 23 24 28 37 44 44 43 42 42 44 45 45 44 43 43 45 48 47 45 45 46 45 43
0 0 0 0 0 0 0 0 0 1 2 3 3 4 5 7 11 17 21 25 27 26 26 28 34 42 42 38 39 42 44 46 44 42 43 45 47 49 49 47 49 49 45 43
1 1 0 0 0 0 0 0 0 1 3 3 4 6 8 9 13 18 24 30 31 31 32 32 33 37 37 36 40 44 44 44 44 44 44 45 48 50 50 50 51 51 48 45
1 1 0 0 0 0 0 0 0 1 3 4 5 8 10 11 14 20 27 33 35 36 37 36 35 36 38 40 44 47 45 44 45 45 45 45 47 49 50 50 50 51 50 48
1 1 0 0 0 0 0 0 0 1 4 6 7 10 12 15 19 24 29 34 36 37 38 39 38 41 44 46 48 49 48 47 46 46 45 45 46 48 49 49 49 50 49 49
0 0 0 0 0 0 0 0 2 5 9 10 11 13 17 21 25 29 32 34 35 35 35 37 40 44 47 49 50 50 49 48 46 46 44 44 44 45 46 47 48 49 49 48
0 0 0 1 2 3 3 4 6 10 12 13 13 16 20 24 28 31 33 33 32 31 30 33 38 44 47 48 48 49 50 48 45 45 44 43 41 40 43 46 46 45 46 46
0 0 2 3 5 7 9 10 11 12 11 10 12 15 19 22 25 27 28 28 26 25 25 28 35 42 43 42 42 45 49 48 45 44 45 44 40 38 40 42 42 40 39 39
0 1 4 5 6 8 9 10 10 10 8 9 13 16 18 22 24 24 22 21 19 19 22 25 31 35 36 34 34 40 46 47 44 44 47 46 41 38 39 40 38 36 36 35
2 3 4 5 6 6 6 7 8 8 10 13 16 18 18 20 23 24 23 21 19 19 20 23 25 27 28 28 29 36 43 45 43 42 44 43 39 37 38 36 30 27 27 28
3 4 4 6 7 5 5 6 6 8 12 17 19 19 18 19 22 25 27 26 23 21 20 21 21 22 24 25 28 34 41 45 43 39 38 38 36 37 37 31 23 17 16 16

GEFSCGP_con_prob3kmehi_294.txt.gz
EHI
0 0 0 0 0 0 0 0 1 0 0 0 1 4 5 6 5 4 3 2 3 4 3 3 5 9 12 12 8 5 4 4 4 4 4 2 0 0 0 0 0 0 1 1
0 0 0 0 0 0 0 1 1 1 0 0 1 3 3 4 4 4 3 4 4 4 3 4 7 11 15 16 13 9 6 5 5 5 4 2 1 0 0 0 0 1 3 3
0 0 0 0 0 0 0 1 2 2 1 1 1 1 1 1 2 4 5 6 6 5 3 5 10 15 19 21 18 13 9 7 6 6 4 3 1 1 1 1 1 2 4 5
0 0 0 0 0 0 0 1 2 3 2 1 1 0 0 0 2 6 9 9 9 6 5 8 13 18 23 24 21 15 11 9 8 7 6 5 4 3 3 2 1 3 4 4
0 0 0 0 0 0 0 1 2 2 1 1 1 0 0 0 2 8 12 12 11 8 7 10 14 19 24 26 23 18 13 11 11 11 10 9 7 6 4 2 2 3 3 3
0 0 0 0 0 0 0 0 1 1 0 0 1 1 0 0 2 6 11 14 13 10 9 11 15 20 25 28 28 24 18 14 13 12 11 8 6 6 5 5 4 4 4 3
0 0 0 0 0 0 0 0 0 0 0 0 0 0 0 0 1 4 9 13 13 10 10 12 17 22 26 29 31 29 24 18 14 12 8 5 4 5 6 6 6 6 5 4
0 0 0 0 0 0 0 0 0 0 0 0 0 0 0 0 1 4 8 10 10 10 9 11 16 22 25 28 30 31 28 22 17 14 10 6 4 4 6 6 6 6 5 5
0 0 0 0 0 0 0 0 0 0 0 0 0 0 0 0 1 4 8 8 7 8 8 10 14 17 20 25 28 30 28 23 20 18 15 11 8 7 7 7 6 6 6 6
0 0 0 0 0 0 0 0 0 0 0 0 0 0 0 0 1 4 7 8 8 8 8 10 11 13 16 21 24 26 27 26 23 21 19 16 13 12 10 8 7 7 7 7
0 0 0 0 0 0 0 0 0 0 0 0 0 0 0 0 1 4 7 9 10 10 8 8 9 10 13 18 21 24 28 30 28 25 22 20 18 16 13 10 9 8 8 7
0 0 0 0 0 0 0 0 0 0 0 0 0 0 0 1 3 5 8 10 11 11 9 8 9 10 12 16 19 24 28 32 32 30 27 24 22 19 15 11 10 10 8 6
0 0 0 0 0 0 0 0 0 0 0 0 0 0 1 3 6 7 9 10 11 12 13 12 11 11 11 13 16 20 25 30 32 32 29 27 25 21 18 14 12 12 11 8
0 0 0 0 0 0 0 0 0 0 0 0 0 0 1 2 4 7 9 10 13 15 17 17 15 12 11 9 10 14 21 26 31 32 31 28 26 24 21 17 15 15 14 11
0 0 0 0 0 0 0 0 0 0 0 0 0 0 0 1 3 6 9 13 16 17 18 19 18 16 14 10 9 12 18 23 28 33 33 30 27 24 21 18 17 17 16 14
0 0 0 0 0 0 0 0 0 0 0 0 0 0 2 3 6 9 13 16 18 17 17 19 20 19 17 14 12 14 19 21 25 31 35 33 28 24 20 17 17 19 18 16
0 0 0 0 0 0 0 0 0 0 1 1 1 2 5 9 11 14 17 20 19 17 16 17 18 18 18 16 15 17 20 23 25 29 34 34 30 25 21 19 18 19 19 19
0 0 0 0 0 0 0 0 0 0 1 3 3 4 8 12 14 16 20 22 22 18 16 16 16 17 17 16 15 18 22 25 26 28 31 32 32 28 24 21 19 20 22 24
0 0 0 0 0 0 0 0 0 0 1 3 3 5 9 13 16 17 20 22 23 22 20 18 19 20 19 17 17 20 22 23 24 25 27 29 30 29 27 23 21 23 25 27
0 0 0 0 0 0 0 0 0 0 1 2 2 3 8 13 17 19 21 23 23 23 24 23 23 24 23 21 22 22 21 19 20 22 25 27 28 29 29 27 25 26 27 27
0 0 0 0 0 0 0 1 0 0 0 1 1 2 6 11 16 20 22 22 21 21 23 24 24 25 24 23 23 22 18 17 18 21 25 29 31 31 32 31 31 31 30 29
0 0 0 0 0 0 0 0 0 0 0 1 1 2 6 10 16 21 21 18 16 17 18 19 21 22 21 21 21 19 16 16 17 19 23 28 33 34 34 34 34 33 31 31
0 0 1 1 0 0 0 0 0 1 1 2 2 4 7 12 16 17 16 13 11 12 12 13 15 17 16 17 17 15 14 14 15 16 18 21 26 30 32 33 32 31 29 29
1 2 3 2 1 1 1 0 1 2 2 3 4 6 11 14 14 12 10 8 8 9 9 10 10 11 13 13 13 13 13 12 13 14 14 15 19 25 28 29 27 25 25 25
2 3 5 5 4 3 3 2 3 4 4 5 7 10 13 15 13 11 9 8 8 8 9 9 8 9 10 10 11 12 12 11 11 12 13 13 16 21 25 24 20 17 17 18
2 3 6 7 7 6 4 4 6 5 4 6 10 13 15 15 13 11 10 9 9 9 9 8 8 8 8 8 10 11 11 10 10 11 13 14 15 19 22 19 14 11 10 10